Time,TemperatureF,DewpointF,PressureIn,WindDirection,WindDirectionDegrees,WindSpeedMPH,WindSpeedGustMPH,Humidity,HourlyPrecipIn,Conditions,Clouds,dailyrainin,SoftwareType,DateUTC
2013-11-09 00:22:00,41.0,33.0,30.13,SW,220,0.0,2.0,73,0.00,,,0.00,,2013-11-09 06:22:00,
2013-11-09 00:54:00,42.0,32.0,30.14,SW,220,0.0,2.0,68,0.00,,,0.00,,2013-11-09 06:54:00,
2013-11-09 01:21:00,42.0,31.0,30.14,SW,220,2.0,5.0,65,0.00,,,0.00,,2013-11-09 07:21:00,
2013-11-09 01:52:00,41.0,32.0,30.14,SW,220,0.0,3.0,69,0.00,,,0.00,,2013-11-09 07:52:00,
2013-11-09 02:21:00,40.0,32.0,30.12,SW,220,2.0,2.0,72,0.00,,,0.00,,2013-11-09 08:21:00,
2013-11-09 02:52:00,40.0,33.0,30.12,SW,220,2.0,3.0,75,0.00,,,0.00,,2013-11-09 08:52:00,
2013-11-09 03:21:00,39.0,32.0,30.11,SW,220,1.0,3.0,76,0.00,,,0.00,,2013-11-09 09:21:00,
2013-11-09 03:53:00,39.0,32.0,30.11,SW,220,0.0,3.0,76,0.00,,,0.00,,2013-11-09 09:53:00,
2013-11-09 04:23:00,38.0,32.0,30.12,SW,220,2.0,3.0,78,0.00,,,0.00,,2013-11-09 10:23:00,
2013-11-09 04:52:00,38.0,32.0,30.13,SW,220,0.0,3.0,78,0.00,,,0.00,,2013-11-09 10:52:00,
2013-11-09 05:22:00,37.0,32.0,30.13,SW,220,2.0,2.0,83,0.00,,,0.00,,2013-11-09 11:22:00,
2013-11-09 05:52:00,38.0,32.0,30.12,SW,220,3.0,3.0,80,0.00,,,0.00,,2013-11-09 11:52:00,
2013-11-09 06:21:00,38.0,33.0,30.13,SW,220,0.0,5.0,81,0.00,,,0.00,,2013-11-09 12:21:00,
2013-11-09 06:52:00,38.0,32.0,30.14,SW,220,1.0,3.0,80,0.00,,,0.00,,2013-11-09 12:52:00,
2013-11-09 07:22:00,39.0,33.0,30.14,SW,220,2.0,5.0,80,0.00,,,0.00,,2013-11-09 13:22:00,
2013-11-09 07:52:00,41.0,34.0,30.15,SW,215,6.0,6.0,75,0.00,,,0.00,,2013-11-09 13:52:00,
2013-11-09 08:22:00,44.0,35.0,30.16,SW,219,3.0,7.0,71,0.00,,,0.00,,2013-11-09 14:22:00,
2013-11-09 08:52:00,47.0,35.0,30.16,SW,236,5.0,10.0,63,0.00,,,0.00,,2013-11-09 14:52:00,
2013-11-09 09:21:00,48.0,36.0,30.16,SW,224,11.0,16.0,63,0.00,,,0.00,,2013-11-09 15:21:00,
2013-11-09 09:53:00,49.0,34.0,30.16,WSW,246,10.0,13.0,57,0.00,,,0.00,,2013-11-09 15:53:00,
2013-11-09 10:24:00,52.0,36.0,30.16,SW,223,9.0,17.0,55,0.00,,,0.00,,2013-11-09 16:24:00,
2013-11-09 10:52:00,55.0,37.0,30.16,WSW,246,8.0,20.0,51,0.00,,,0.00,,2013-11-09 16:52:00,
2013-11-09 11:24:00,55.0,37.0,30.14,WSW,244,16.0,21.0,50,0.00,,,0.00,,2013-11-09 17:24:00,
2013-11-09 11:52:00,57.0,37.0,30.13,SW,216,13.0,21.0,47,0.00,,,0.00,,2013-11-09 17:52:00,
2013-11-09 12:23:00,59.0,38.0,30.11,SW,227,10.0,18.0,45,0.00,,,0.00,,2013-11-09 18:23:00,
2013-11-09 12:52:00,60.0,37.0,30.09,WSW,244,13.0,22.0,42,0.00,,,0.00,,2013-11-09 18:52:00,
2013-11-09 13:23:00,61.0,37.0,30.08,WSW,253,8.0,26.0,41,0.00,,,0.00,,2013-11-09 19:23:00,
2013-11-09 13:52:00,61.0,36.0,30.07,WNW,302,6.0,17.0,40,0.00,,,0.00,,2013-11-09 19:52:00,
2013-11-09 14:22:00,61.0,35.0,30.06,WNW,294,13.0,20.0,37,0.00,,,0.00,,2013-11-09 20:22:00,
2013-11-09 14:52:00,61.0,36.0,30.05,WNW,302,7.0,17.0,40,0.00,,,0.00,,2013-11-09 20:52:00,
2013-11-09 15:22:00,61.0,38.0,30.06,WNW,285,5.0,17.0,42,0.00,,,0.00,,2013-11-09 21:22:00,
2013-11-09 15:54:00,59.0,37.0,30.08,SW,224,5.0,16.0,43,0.00,,,0.00,,2013-11-09 21:54:00,
2013-11-09 16:24:00,58.0,36.0,30.08,SW,233,3.0,17.0,44,0.00,,,0.00,,2013-11-09 22:24:00,
2013-11-09 16:54:00,57.0,37.0,30.08,WSW,240,5.0,12.0,47,0.00,,,0.00,,2013-11-09 22:54:00,
2013-11-09 17:22:00,56.0,38.0,30.10,WSW,254,5.0,13.0,51,0.00,,,0.00,,2013-11-09 23:22:00,
2013-11-09 17:53:00,54.0,38.0,30.11,SW,233,1.0,10.0,54,0.00,,,0.00,,2013-11-09 23:53:00,
2013-11-09 18:21:00,51.0,36.0,30.12,SW,234,0.0,11.0,57,0.00,,,0.00,,2013-11-10 00:21:00,
2013-11-09 18:52:00,48.0,36.0,30.14,SW,233,0.0,5.0,64,0.00,,,0.00,,2013-11-10 00:52:00,
2013-11-09 19:21:00,46.0,36.0,30.14,SW,233,2.0,2.0,69,0.00,,,0.00,,2013-11-10 01:21:00,
2013-11-09 19:52:00,49.0,37.0,30.14,SW,229,4.0,5.0,64,0.00,,,0.00,,2013-11-10 01:52:00,
2013-11-09 20:22:00,49.0,38.0,30.14,SW,227,4.0,7.0,65,0.00,,,0.00,,2013-11-10 02:22:00,
2013-11-09 20:52:00,48.0,38.0,30.13,SW,227,6.0,7.0,69,0.00,,,0.00,,2013-11-10 02:52:00,
2013-11-09 21:22:00,48.0,38.0,30.14,SW,230,2.0,7.0,68,0.00,,,0.00,,2013-11-10 03:22:00,
2013-11-09 21:35:00,48.0,38.0,30.14,SW,230,2.0,7.0,68,0.00,,,0.00,,2013-11-10 03:35:00,
2013-11-09 21:54:00,47.0,37.0,30.14,SW,229,0.0,5.0,69,0.00,,,0.00,,2013-11-10 03:54:00,
2013-11-09 22:02:00,-999.0,-99.9,30.14,SW,229,2.0,5.0,-999,-99.99,,,-99.99,,2013-11-10 04:02:00,
2013-11-09 22:23:00,47.0,38.0,30.14,SW,229,3.0,5.0,70,0.00,,,0.00,,2013-11-10 04:23:00,
2013-11-09 22:52:00,47.0,38.0,30.14,SW,229,1.0,5.0,70,0.00,,,0.00,,2013-11-10 04:52:00,
2013-11-09 23:23:00,47.0,38.0,30.14,SW,229,1.0,5.0,72,0.00,,,0.00,,2013-11-10 05:23:00,
2013-11-09 23:34:00,47.0,38.0,30.14,SW,229,1.0,5.0,72,0.00,,,0.00,,2013-11-10 05:34:00,
2013-11-09 23:53:00,45.0,37.0,30.14,SW,230,0.0,6.0,74,0.00,,,0.00,,2013-11-10 05:53:00,